Location: Elkol
(41.7238°N, 110.6124°W)
Time: 00:28:54
(UTC+00:00)

BlueWalker 3 - Pass Details

Date: 04 December 2022
Orbit: 499 x 517 km, 53.2° (Epoch: 05 February)

Event Time Altitude Azimuth Distance (km) Brightness Sun altitude
Rises 01:17:28 0° 305° (NW) 2,627 6.2 -15.5°
Reaches altitude 10° 01:20:23 10° 328° (NNW) 1,735 4.9 -16.0°
Maximum altitude 01:22:51 16° 7° (N) 1,398 4.0 -16.4°
Enters shadow 01:23:19 16° 16° (NNE) 1,410 3.9 -16.5°
